Voltar ao catálogo

STARLINK-30146

AtivoComunicaçõesVLEO
NORAD 57442·PAYLOAD·🇺🇸 United States

Lançado Jul 24, 2023 de Cape Canaveral Space Force Station

Loading…

Próximas Passagens (próximas 24 horas)

TLE

AtualizadoSource: CelesTrak SupGP

Época: Sep 15, 2026, 02:26 UTC

1 57442C 23105N   26258.10187500 -.00007034  00000+0 -25476-3 0  2588
2 57442  42.9997 270.2867 0001304 259.5511 270.5575 15.27582741    16

Acompanhe STARLINK-30146 em tempo real com AllMySat

Download on the App Store